Location: Boullarre
(49.1305°N, 3.0047°E)
Time: 23:12:30
(UTC+00:00)

SKYMED 3 - Pass Details

Date: 03 February 2023
Orbit: 576 x 599 km, 97.9° (Epoch: 29 March)

Event Time Altitude Azimuth Distance (km) Brightness Sun altitude
Rises 17:57:45 0° 17° (NNE) 2,809 7.6 -11.7°
Reaches altitude 10° 17:59:57 10° 22° (NNE) 1,907 6.7 -12.1°
Maximum altitude 18:04:00 54° 100° (E) 714 4.5 -12.7°
Drops below altitude 10° 18:08:03 10° 179° (S) 1,905 7.2 -13.4°
Sets 18:10:15 0° 184° (S) 2,805 8.1 -13.7°
